(455) Bruchsalia
ephemeris date magn radius delta ra dec elong phase
Opposition13 Jul 202611.22.094 AU1.093 AU19h45m-34°59'166.4°6.6°
Today5 Sep 202612.01.967 AU1.235 AU19h17m-38°19'122.2°25.7°
(455) Bruchsalia - 2026-09-05
astro.vanbuitenen.nl


 
-1 year
-1 month
-1 day
Now
+1 day
+1 month
+1 year

The interactive orbit chart above shows the body's path through the solar system and its position at the given date. Green and blue lines are shown perpendicular to the ecliptic plane: Green if the path is above the ecliptic plane, blue if it is below. (Left-click and drag to rotate the view; Right-click and drag to move the view; Use scroll wheel to zoom in our out.)

The orbital elements of Bruchsalia are:

            e (Eccentricity)                : 0.2943201
            a (Semimajor axis)              : 2.6564184
            i (Inclination)                 : 12.01664
            Ω (Longitude of ascending node) : 76.06977
            ω (Argument of perihelion)      : 273.34337
            M (Mean anomaly)                : 319.82968
            Epoch                           : 2026 Jun 09

            L (Longitude of perihelion)     : -10.51213
            B (Latitude of perihelion)      : -11.99588
            P (Orbital period in years)     : 4.33            
        

The light curve chart below shows the estimated development of the minor planet's magnitude.


The all-sky chart below shows the path of the minor planet over the same period as the light curve. The current position is marked yellow.





The following chart shows the path of the minor planet in the next few days. The field of view is optimized for (~10x50) binoculars and finderscopes.




Ephemerides:
Date       Time       RA (2000)    DEC (2000)    delta   radius  elong  phase   PA    magn
2026-09-05 00:00 UT   19 17 35.4   -38 19 45     1.235    1.967  122.2   25.7    72   12.0 
2026-09-05 21:10 UT   19 17 60.0   -38 17 37     1.241    1.965  121.5   26.0    72   12.1 
2026-09-06 00:00 UT   19 18 03.4   -38 17 19     1.241    1.965  121.4   26.0    72   12.1 
2026-09-07 00:00 UT   19 18 34.0   -38 14 43     1.248    1.963  120.5   26.2    72   12.1 
2026-09-08 00:00 UT   19 19 07.0   -38 11 58     1.255    1.961  119.7   26.5    73   12.1 
2026-09-09 00:00 UT   19 19 42.6   -38 09 02     1.262    1.959  118.9   26.7    73   12.1 
2026-09-10 00:00 UT   19 20 20.6   -38 05 58     1.269    1.957  118.2   27.0    73   12.1 
2026-09-11 00:00 UT   19 21 01.1   -38 02 44     1.276    1.955  117.4   27.2    73   12.1 
2026-09-12 00:00 UT   19 21 44.0   -37 59 21     1.283    1.953  116.6   27.4    74   12.2 
2026-09-13 00:00 UT   19 22 29.3   -37 55 49     1.290    1.951  115.8   27.7    74   12.2 
2026-09-14 00:00 UT   19 23 17.0   -37 52 08     1.297    1.950  115.1   27.9    74   12.2 
2026-09-15 00:00 UT   19 24 07.0   -37 48 18     1.305    1.948  114.3   28.1    74   12.2 
2026-09-16 00:00 UT   19 24 59.4   -37 44 20     1.312    1.946  113.6   28.3    74   12.2 
2026-09-17 00:00 UT   19 25 54.0   -37 40 13     1.319    1.944  112.8   28.5    75   12.2 
2026-09-18 00:00 UT   19 26 50.8   -37 35 57     1.327    1.942  112.1   28.6    75   12.3 
2026-09-19 00:00 UT   19 27 49.8   -37 31 33     1.334    1.941  111.4   28.8    75   12.3 
2026-09-20 00:00 UT   19 28 51.0   -37 27 01     1.342    1.939  110.6   29.0    75   12.3 
2026-09-21 00:00 UT   19 29 54.3   -37 22 21     1.350    1.937  109.9   29.2    75   12.3 
2026-09-22 00:00 UT   19 30 59.7   -37 17 33     1.357    1.936  109.2   29.3    75   12.3 
2026-09-23 00:00 UT   19 32 07.1   -37 12 36     1.365    1.934  108.5   29.5    75   12.3 
2026-09-24 00:00 UT   19 33 16.5   -37 07 31     1.373    1.932  107.8   29.6    76   12.3 
2026-09-25 00:00 UT   19 34 27.8   -37 02 19     1.381    1.931  107.1   29.8    76   12.4 
2026-09-26 00:00 UT   19 35 41.1   -36 56 58     1.389    1.929  106.4   29.9    76   12.4 
2026-09-27 00:00 UT   19 36 56.3   -36 51 30     1.397    1.928  105.8   30.0    76   12.4 
2026-09-28 00:00 UT   19 38 13.2   -36 45 53     1.405    1.926  105.1   30.2    76   12.4 
2026-09-29 00:00 UT   19 39 32.0   -36 40 09     1.413    1.925  104.4   30.3    76   12.4 
2026-09-30 00:00 UT   19 40 52.6   -36 34 16     1.421    1.923  103.8   30.4    76   12.4 
2026-10-01 00:00 UT   19 42 14.9   -36 28 16     1.429    1.922  103.1   30.5    76   12.4 
2026-10-02 00:00 UT   19 43 38.8   -36 22 08     1.437    1.920  102.5   30.6    76   12.5 
2026-10-03 00:00 UT   19 45 04.4   -36 15 52     1.445    1.919  101.8   30.7    76   12.5 
2026-10-04 00:00 UT   19 46 31.7   -36 09 28     1.453    1.917  101.2   30.8    76   12.5 
2026-10-05 00:00 UT   19 48 00.5   -36 02 55     1.461    1.916  100.5   30.9    76   12.5 


    Terminology:
            
    delta:  distance between minor planet and earth in AU
    radius: distance between minor planet and sun in AU
    magn:   magnitude (brightness) estimate    
    ra:     right ascension in hours (24h = 360deg)
    dec:    declination in degrees
    elong:  elongation in degrees (angle sun-earth-minor planet)    
    phase:  phase angle in degrees (angle sun-minor planet-earth)        
    AU:     Astronomical Unit (mean distance between earth and sun: 149597870.7 km
    

Orbital elements provided by the MPC (Minor Planet Center).
Calculations by a modified version of AAPlus, a C# implementation of the AA+ project by PJ Naughter from the algorithms presented in the book "Astronomical Algorithms" by Jean Meeus.
NGC2000 dso catalog and star labels from VizieR as provided by the Strasbourg astronomical Data Center.
Tycho2 catalog from the ESO archive.